| time (UTC) | temp C | wind direction | speed KPH | gust KPH | rain 1hr cm | rain 24hr cm | rain mn cm | humidity % | barometer mb |
| 20260504202721 | 23 | 101 | 4.8 | 8.0 | 0.00 | 0.00 | 0.00 | 41 | 1010.8 |
| 20260504202220 | 23 | 103 | 4.8 | 8.0 | 0.00 | 0.00 | 0.00 | 42 | 1011.0 |
| 20260504201720 | 23 | 144 | 4.8 | 12.9 | 0.00 | 0.00 | 0.00 | 42 | 1011.0 |
| 20260504201220 | 23 | 103 | 4.8 | 4.8 | 0.00 | 0.00 | 0.00 | 42 | 1011.1 |
| 20260504200720 | 23 | 153 | 3.2 | 8.0 | 0.00 | 0.00 | 0.00 | 41 | 1011.1 |
| 20260504200220 | 23 | 176 | 1.6 | 11.3 | 0.00 | 0.00 | 0.00 | 42 | 1011.2 |
| 20260504195720 | 23 | 161 | 3.2 | 4.8 | 0.00 | 0.00 | 0.00 | 43 | 1011.2 |
| 20260504195220 | 23 | 198 | 1.6 | 4.8 | 0.00 | 0.00 | 0.00 | 42 | 1011.3 |
| 20260504194719 | 23 | 338 | 3.2 | 8.0 | 0.00 | 0.00 | 0.00 | 43 | 1011.3 |
| 20260504194219 | 23 | 113 | 3.2 | 4.8 | 0.00 | 0.00 | 0.00 | 42 | 1011.4 |
| 20260504193719 | 23 | 180 | 3.2 | 4.8 | 0.00 | 0.00 | 0.00 | 43 | 1011.5 |
| 20260504193219 | 23 | 214 | 3.2 | 8.0 | 0.00 | 0.00 | 0.00 | 41 | 1011.5 |
| 20260504192719 | 23 | 138 | 3.2 | 4.8 | 0.00 | 0.00 | 0.00 | 43 | 1011.6 |
| 20260504192219 | 23 | 245 | 4.8 | 11.3 | 0.00 | 0.00 | 0.00 | 42 | 1011.6 |
| 20260504191719 | 23 | 92 | 1.6 | 4.8 | 0.00 | 0.00 | 0.00 | 45 | 1011.7 |
| 20260504191218 | 22 | 184 | 3.2 | 4.8 | 0.00 | 0.00 | 0.00 | 43 | 1011.8 |
| 20260504190718 | 22 | 256 | 3.2 | 8.0 | 0.00 | 0.00 | 0.00 | 43 | 1011.9 |
| 20260504190218 | 22 | 163 | 3.2 | 16.1 | 0.00 | 0.00 | 0.00 | 45 | 1012.0 |
| 20260504185718 | 22 | 347 | 1.6 | 3.2 | 0.00 | 0.00 | 0.00 | 45 | 1012.1 |
| 20260504185218 | 22 | 91 | 3.2 | 8.0 | 0.00 | 0.00 | 0.00 | 44 | 1012.2 |
| 20260504184718 | 22 | 156 | 4.8 | 11.3 | 0.00 | 0.00 | 0.00 | 44 | 1012.2 |
| 20260504184217 | 22 | 95 | 1.6 | 12.9 | 0.00 | 0.00 | 0.00 | 46 | 1012.3 |
| 20260504183717 | 22 | 241 | 8.0 | 12.9 | 0.00 | 0.00 | 0.00 | 43 | 1012.3 |
| 20260504183217 | 22 | 253 | 3.2 | 8.0 | 0.00 | 0.00 | 0.00 | 42 | 1012.3 |
| 20260504182717 | 22 | 106 | 3.2 | 4.8 | 0.00 | 0.00 | 0.00 | 42 | 1012.4 |
| 20260504182217 | 22 | 155 | 3.2 | 11.3 | 0.00 | 0.00 | 0.00 | 42 | 1012.4 |
| 20260504181717 | 22 | 93 | 3.2 | 4.8 | 0.00 | 0.00 | 0.00 | 42 | 1012.6 |
| 20260504181217 | 22 | 252 | 1.6 | 4.8 | 0.00 | 0.00 | 0.00 | 43 | 1012.7 |
| 20260504180716 | 21 | 254 | 1.6 | 4.8 | 0.00 | 0.00 | 0.00 | 42 | 1012.7 |
| 20260504180216 | 22 | 226 | 4.8 | 12.9 | 0.00 | 0.00 | 0.00 | 40 | 1012.8 |
| 20260504175716 | 21 | 203 | 3.2 | 8.0 | 0.00 | 0.00 | 0.00 | 41 | 1012.7 |
| 20260504175216 | 21 | 98 | 8.0 | 9.7 | 0.00 | 0.00 | 0.00 | 42 | 1012.8 |
| 20260504174716 | 21 | 249 | 9.7 | 16.1 | 0.00 | 0.00 | 0.00 | 40 | 1012.9 |
| 20260504174216 | 21 | 244 | 3.2 | 4.8 | 0.00 | 0.00 | 0.00 | 39 | 1013.0 |
| 20260504173645 | 21 | 224 | 1.6 | 4.8 | 0.00 | 0.00 | 0.00 | 43 | 1012.9 |
| 20260504173145 | 21 | 236 | 3.2 | 4.8 | 0.00 | 0.00 | 0.00 | 44 | 1013.1 |
| 20260504172645 | 21 | 261 | 4.8 | 12.9 | 0.00 | 0.00 | 0.00 | 48 | 1013.0 |
| 20260504172145 | 21 | 268 | 4.8 | 9.7 | 0.00 | 0.00 | 0.00 | 46 | 1013.2 |
| 20260504171645 | 21 | 129 | 1.6 | 4.8 | 0.00 | 0.00 | 0.00 | 47 | 1013.2 |
| 20260504171145 | 21 | 249 | 4.8 | 11.3 | 0.00 | 0.00 | 0.00 | 47 | 1013.2 |
| 20260504170645 | 21 | 257 | 8.0 | 12.9 | 0.00 | 0.00 | 0.00 | 44 | 1013.2 |
| 20260504170144 | 21 | 259 | 3.2 | 9.7 | 0.00 | 0.00 | 0.00 | 46 | 1013.2 |
| 20260504160143 | 18 | 180 | 1.6 | 3.2 | 0.00 | 0.00 | 0.00 | 49 | 1014.0 |
| 20260504151141 | 17 | 85 | 1.6 | 3.2 | 0.00 | 0.00 | 0.00 | 61 | 1014.4 |
| 20260504150641 | 17 | 261 | 3.2 | 4.8 | 0.00 | 0.00 | 0.00 | 59 | 1014.5 |
| 20260504150141 | 17 | 91 | 1.6 | 1.6 | 0.00 | 0.00 | 0.00 | 59 | 1014.5 |
| 20260504141139 | 16 | 264 | 3.2 | 4.8 | 0.00 | 0.00 | 0.00 | 63 | 1014.8 |
| 20260504140639 | 16 | 260 | 3.2 | 8.0 | 0.00 | 0.00 | 0.00 | 61 | 1014.9 |
| 20260504140139 | 16 | 265 | 3.2 | 12.9 | 0.00 | 0.00 | 0.00 | 61 | 1014.9 |
| 20260504130637 | 15 | 226 | 8.0 | 4.8 | 0.00 | 0.00 | 0.00 | 61 | 1015.0 |
| 20260504130137 | 15 | 171 | 1.6 | 3.2 | 0.00 | 0.00 | 0.00 | 62 | 1015.1 |
| 20260504120135 | 14 | 86 | 0.0 | 1.6 | 0.00 | 0.00 | 0.00 | 65 | 1015.5 |
| 20260504110634 | 13 | 254 | 1.6 | 1.6 | 0.00 | 0.00 | 0.00 | 69 | 1015.8 |
| 20260504110134 | 13 | 114 | 1.6 | 1.6 | 0.00 | 0.00 | 0.00 | 69 | 1015.7 |
| 20260504100132 | 13 | 248 | 3.2 | 4.8 | 0.00 | 0.00 | 0.00 | 72 | 1015.5 |
| 20260504090130 | 13 | 238 | 3.2 | 4.8 | 0.00 | 0.00 | 0.00 | 76 | 1015.7 |
| 20260504081629 | 12 | 272 | 0.0 | 1.6 | 0.00 | 0.00 | 0.00 | 79 | 1015.7 |
| 20260504081128 | 12 | 215 | 1.6 | 3.2 | 0.00 | 0.00 | 0.00 | 78 | 1015.7 |
| 20260504080628 | 12 | 228 | 0.0 | 0.0 | 0.00 | 0.00 | 0.00 | 77 | 1015.8 |
| 20260504080128 | 12 | 219 | 3.2 | 4.8 | 0.00 | 0.00 | 0.00 | 77 | 1015.8 |
| 20260504070126 | 12 | 244 | 4.8 | 8.0 | 0.00 | 0.00 | 0.00 | 73 | 1015.9 |
| 20260504060125 | 12 | 30 | 0.0 | 0.0 | 0.00 | 0.00 | 0.00 | 72 | 1015.9 |
| 20260504050623 | 12 | 53 | 0.0 | 1.6 | 0.00 | 0.00 | 0.00 | 72 | 1015.7 |
| 20260504050123 | 12 | 53 | 0.0 | 1.6 | 0.00 | 0.00 | 0.00 | 71 | 1015.8 |
| 20260504045623 | 12 | 224 | 0.0 | 1.6 | 0.00 | 0.00 | 0.00 | 71 | 1015.9 |
| 20260504045123 | 12 | 224 | 0.0 | 0.0 | 0.00 | 0.00 | 0.00 | 72 | 1016.0 |
| 20260504044622 | 12 | 274 | 3.2 | 4.8 | 0.00 | 0.00 | 0.00 | 72 | 1016.0 |
| 20260504044122 | 11 | 8 | 0.0 | 3.2 | 0.00 | 0.00 | 0.00 | 72 | 1015.9 |
| 20260504043622 | 11 | 252 | 0.0 | 4.8 | 0.00 | 0.00 | 0.00 | 75 | 1016.0 |
| 20260504043122 | 11 | 224 | 0.0 | 1.6 | 0.00 | 0.00 | 0.00 | 77 | 1016.0 |
| 20260504042622 | 11 | 225 | 0.0 | 1.6 | 0.00 | 0.00 | 0.00 | 78 | 1015.9 |
| 20260504042122 | 11 | 323 | 0.0 | 0.0 | 0.00 | 0.00 | 0.00 | 78 | 1015.8 |
| 20260504041621 | 11 | 323 | 0.0 | 1.6 | 0.00 | 0.00 | 0.00 | 77 | 1015.7 |
| 20260504041121 | 10 | 323 | 0.0 | 0.0 | 0.00 | 0.00 | 0.00 | 77 | 1015.7 |
| 20260504040621 | 10 | 97 | 0.0 | 1.6 | 0.00 | 0.00 | 0.00 | 77 | 1015.8 |
| 20260504040121 | 10 | 97 | 0.0 | 1.6 | 0.00 | 0.00 | 0.00 | 78 | 1015.7 |
| 20260504035621 | 10 | 97 | 0.0 | 1.6 | 0.00 | 0.00 | 0.00 | 80 | 1015.6 |
| 20260504035121 | 9 | 97 | 0.0 | 0.0 | 0.00 | 0.00 | 0.00 | 81 | 1015.6 |
| 20260504034620 | 10 | 82 | 0.0 | 1.6 | 0.00 | 0.00 | 0.00 | 79 | 1015.5 |
| 20260504034120 | 9 | 82 | 1.6 | 3.2 | 0.00 | 0.00 | 0.00 | 81 | 1015.5 |
| 20260504033620 | 9 | 82 | 0.0 | 0.0 | 0.00 | 0.00 | 0.00 | 82 | 1015.5 |
| 20260504033120 | 8 | 195 | 0.0 | 0.0 | 0.00 | 0.00 | 0.00 | 83 | 1015.4 |
| 20260504032620 | 8 | 197 | 0.0 | 0.0 | 0.00 | 0.00 | 0.00 | 83 | 1015.4 |
| 20260504032120 | 8 | 215 | 0.0 | 0.0 | 0.00 | 0.00 | 0.00 | 84 | 1015.3 |
| 20260504031620 | 8 | 215 | 0.0 | 1.6 | 0.00 | 0.00 | 0.00 | 83 | 1015.3 |
| 20260504031119 | 8 | 215 | 0.0 | 0.0 | 0.00 | 0.00 | 0.00 | 84 | 1015.3 |
| 20260504030619 | 8 | 259 | 0.0 | 1.6 | 0.00 | 0.00 | 0.00 | 82 | 1015.3 |
| 20260504030119 | 8 | 259 | 0.0 | 1.6 | 0.00 | 0.00 | 0.00 | 82 | 1015.3 |
| 20260504025619 | 8 | 259 | 0.0 | 1.6 | 0.00 | 0.00 | 0.00 | 82 | 1015.3 |
| 20260504025119 | 8 | 259 | 0.0 | 1.6 | 0.00 | 0.00 | 0.00 | 82 | 1015.3 |
| 20260504024619 | 8 | 259 | 0.0 | 0.0 | 0.00 | 0.00 | 0.00 | 81 | 1015.3 |
| 20260504024119 | 8 | 259 | 0.0 | 0.0 | 0.00 | 0.00 | 0.00 | 79 | 1015.3 |
| 20260504023548 | 8 | 259 | 0.0 | 0.0 | 0.00 | 0.00 | 0.00 | 78 | 1015.2 |
| 20260504023048 | 8 | 259 | 0.0 | 0.0 | 0.00 | 0.00 | 0.00 | 77 | 1015.3 |
| 20260504022548 | 8 | 259 | 0.0 | 0.0 | 0.00 | 0.00 | 0.00 | 76 | 1015.3 |
| 20260504022048 | 8 | 259 | 0.0 | 1.6 | 0.00 | 0.00 | 0.00 | 77 | 1015.2 |
| 20260504021548 | 8 | 259 | 0.0 | 1.6 | 0.00 | 0.00 | 0.00 | 76 | 1015.3 |
| 20260504021048 | 8 | 259 | 1.6 | 3.2 | 0.00 | 0.00 | 0.00 | 75 | 1015.2 |
| 20260504020547 | 8 | 259 | 0.0 | 1.6 | 0.00 | 0.00 | 0.00 | 75 | 1015.2 |
| 20260504020047 | 8 | 259 | 0.0 | 0.0 | 0.00 | 0.00 | 0.00 | 75 | 1015.2 |
| 20260504015547 | 9 | 259 | 0.0 | 0.0 | 0.00 | 0.00 | 0.00 | 77 | 1015.2 |
| 20260504015047 | 9 | 259 | 0.0 | 1.6 | 0.00 | 0.00 | 0.00 | 75 | 1015.1 |
| 20260504014547 | 9 | 259 | 1.6 | 1.6 | 0.00 | 0.00 | 0.00 | 75 | 1015.1 |
| 20260504014047 | 9 | 259 | 0.0 | 1.6 | 0.00 | 0.00 | 0.00 | 75 | 1015.1 |
| 20260504013547 | 10 | 259 | 0.0 | 1.6 | 0.00 | 0.00 | 0.00 | 75 | 1015.1 |
| 20260504013046 | 10 | 259 | 0.0 | 1.6 | 0.00 | 0.00 | 0.00 | 74 | 1015.0 |
| 20260504012546 | 10 | 259 | 1.6 | 1.6 | 0.00 | 0.00 | 0.00 | 74 | 1015.0 |
| 20260504012046 | 10 | 259 | 0.0 | 1.6 | 0.00 | 0.00 | 0.00 | 72 | 1015.0 |
| 20260504011546 | 11 | 259 | 0.0 | 1.6 | 0.00 | 0.00 | 0.00 | 70 | 1014.9 |
| 20260504011046 | 11 | 259 | 0.0 | 0.0 | 0.00 | 0.00 | 0.00 | 68 | 1014.9 |
| 20260504010546 | 12 | 259 | 0.0 | 1.6 | 0.00 | 0.00 | 0.00 | 66 | 1014.9 |
| 20260504010045 | 12 | 259 | 1.6 | 1.6 | 0.00 | 0.00 | 0.00 | 64 | 1014.9 |
| 20260504005545 | 13 | 259 | 0.0 | 4.8 | 0.00 | 0.00 | 0.00 | 63 | 1014.8 |
| 20260504005045 | 13 | 262 | 0.0 | 1.6 | 0.00 | 0.00 | 0.00 | 64 | 1014.7 |
| 20260504004545 | 13 | 264 | 0.0 | 0.0 | 0.00 | 0.00 | 0.00 | 64 | 1014.7 |
| 20260504004045 | 13 | 257 | 0.0 | 1.6 | 0.00 | 0.00 | 0.00 | 61 | 1014.6 |
| 20260504003545 | 13 | 257 | 1.6 | 3.2 | 0.00 | 0.00 | 0.00 | 60 | 1014.6 |
| 20260504003045 | 13 | 259 | 0.0 | 1.6 | 0.00 | 0.00 | 0.00 | 58 | 1014.6 |
| 20260504002544 | 14 | 260 | 0.0 | 0.0 | 0.00 | 0.00 | 0.00 | 57 | 1014.5 |
| 20260504002044 | 14 | 265 | 0.0 | 1.6 | 0.00 | 0.00 | 0.00 | 56 | 1014.4 |
| 20260504001544 | 14 | 270 | 0.0 | 0.0 | 0.00 | 0.00 | 0.00 | 56 | 1014.4 |
| 20260504001044 | 15 | 270 | 0.0 | 1.6 | 0.00 | 0.00 | 0.00 | 56 | 1014.3 |
| 20260504000544 | 15 | 271 | 3.2 | 3.2 | 0.00 | 0.00 | 0.00 | 56 | 1014.3 |
| 20260504000044 | 15 | 259 | 3.2 | 4.8 | 0.00 | 0.00 | 0.00 | 54 | 1014.3 |
| 20260503235543 | 15 | 261 | 1.6 | 3.2 | 0.00 | 0.00 | 0.00 | 51 | 1014.2 |
| 20260503235043 | 15 | 261 | 1.6 | 3.2 | 0.00 | 0.00 | 0.00 | 49 | 1014.1 |
| 20260503234543 | 15 | 270 | 1.6 | 3.2 | 0.00 | 0.00 | 0.00 | 48 | 1014.1 |
| 20260503234043 | 16 | 270 | 1.6 | 3.2 | 0.00 | 0.00 | 0.00 | 47 | 1014.0 |
| 20260503233513 | 16 | 305 | 3.2 | 4.8 | 0.00 | 0.00 | 0.00 | 48 | 1013.9 |
| 20260503233013 | 16 | 267 | 8.0 | 11.3 | 0.00 | 0.00 | 0.00 | 47 | 1013.9 |
| 20260503232513 | 16 | 265 | 1.6 | 4.8 | 0.00 | 0.00 | 0.00 | 45 | 1013.9 |
| 20260503232012 | 16 | 268 | 3.2 | 4.8 | 0.00 | 0.00 | 0.00 | 45 | 1013.9 |
| 20260503231512 | 16 | 269 | 4.8 | 8.0 | 0.00 | 0.00 | 0.00 | 42 | 1013.9 |
| 20260503231012 | 16 | 269 | 4.8 | 9.7 | 0.00 | 0.00 | 0.00 | 43 | 1014.0 |
| 20260503230512 | 16 | 279 | 8.0 | 8.0 | 0.00 | 0.00 | 0.00 | 44 | 1013.9 |
| 20260503230012 | 16 | 294 | 8.0 | 14.5 | 0.00 | 0.00 | 0.00 | 43 | 1013.9 |
| 20260503225512 | 16 | 284 | 4.8 | 4.8 | 0.00 | 0.00 | 0.00 | 45 | 1014.0 |
| 20260503225012 | 16 | 273 | 4.8 | 4.8 | 0.00 | 0.00 | 0.00 | 44 | 1014.0 |
| 20260503224511 | 16 | 269 | 4.8 | 9.7 | 0.00 | 0.00 | 0.00 | 42 | 1014.0 |
| 20260503224011 | 16 | 269 | 8.0 | 11.3 | 0.00 | 0.00 | 0.00 | 42 | 1014.0 |
| 20260503223511 | 16 | 281 | 8.0 | 4.8 | 0.00 | 0.00 | 0.00 | 43 | 1013.9 |
| 20260503223011 | 16 | 264 | 4.8 | 11.3 | 0.00 | 0.00 | 0.00 | 41 | 1013.9 |
| 20260503222511 | 16 | 276 | 4.8 | 4.8 | 0.00 | 0.00 | 0.00 | 42 | 1013.9 |
| 20260503222011 | 16 | 272 | 8.0 | 14.5 | 0.00 | 0.00 | 0.00 | 42 | 1014.0 |
| 20260503221510 | 16 | 278 | 8.0 | 11.3 | 0.00 | 0.00 | 0.00 | 42 | 1014.1 |
| 20260503221010 | 16 | 269 | 8.0 | 9.7 | 0.00 | 0.00 | 0.00 | 43 | 1014.1 |
| 20260503220510 | 16 | 260 | 4.8 | 12.9 | 0.00 | 0.00 | 0.00 | 42 | 1014.1 |
| 20260503220010 | 16 | 285 | 8.0 | 11.3 | 0.00 | 0.00 | 0.00 | 40 | 1014.2 |
| 20260503215510 | 16 | 316 | 4.8 | 9.7 | 0.00 | 0.00 | 0.00 | 40 | 1014.2 |
| 20260503215010 | 16 | 277 | 4.8 | 12.9 | 0.00 | 0.00 | 0.00 | 40 | 1014.2 |
| 20260503214510 | 16 | 298 | 9.7 | 12.9 | 0.00 | 0.00 | 0.00 | 39 | 1014.2 |
| 20260503214009 | 16 | 268 | 8.0 | 14.5 | 0.00 | 0.00 | 0.00 | 41 | 1014.2 |
| 20260503213509 | 16 | 290 | 12.9 | 19.3 | 0.00 | 0.00 | 0.00 | 39 | 1014.2 |
| 20260503213009 | 16 | 289 | 12.9 | 19.3 | 0.00 | 0.00 | 0.00 | 42 | 1014.2 |
| 20260503212509 | 16 | 305 | 11.3 | 19.3 | 0.00 | 0.00 | 0.00 | 42 | 1014.1 |
| 20260503212009 | 16 | 290 | 9.7 | 16.1 | 0.00 | 0.00 | 0.00 | 41 | 1014.1 |
| 20260503211509 | 16 | 296 | 11.3 | 12.9 | 0.00 | 0.00 | 0.00 | 42 | 1014.1 |
| 20260503211009 | 16 | 282 | 9.7 | 14.5 | 0.00 | 0.00 | 0.00 | 42 | 1014.1 |
| 20260503210508 | 16 | 307 | 8.0 | 12.9 | 0.00 | 0.00 | 0.00 | 42 | 1014.1 |
| 20260503210008 | 16 | 272 | 9.7 | 9.7 | 0.00 | 0.00 | 0.00 | 42 | 1014.2 |
| 20260503205508 | 16 | 283 | 9.7 | 9.7 | 0.00 | 0.00 | 0.00 | 44 | 1014.2 |
| 20260503205008 | 16 | 297 | 11.3 | 14.5 | 0.00 | 0.00 | 0.00 | 40 | 1014.3 |
| 20260503204508 | 16 | 286 | 12.9 | 19.3 | 0.00 | 0.00 | 0.00 | 42 | 1014.3 |
| 20260503204008 | 16 | 299 | 11.3 | 14.5 | 0.00 | 0.00 | 0.00 | 45 | 1014.4 |
| 20260503203437 | 16 | 285 | 14.5 | 20.9 | 0.00 | 0.00 | 0.00 | 40 | 1014.4 |